Regional Weather Roundup
Issued by NWS Upton, NY

Current Version | Previous Version | Graphics & Text | Print | Product List | Glossary Off
Versions: 1 2 3 4 5 6 7 8 9 10 11 12 13 14 15 16 17 18 19 20 21 22 23 24 25 26 27

000
ASUS41 KOKX 201109
RWROKX

REGIONAL WEATHER ROUNDUP
NATIONAL WEATHER SERVICE NEW YORK NY
700 AM EDT THU JUL 20 2017

NOTE: "FAIR" INDICATES FEW OR NO CLOUDS BELOW 12,000 FEET WITH NO
SIGNIFICANT WEATHER AND/OR OBSTRUCTIONS TO VISIBILITY.

NYZ071-072-176-178-NJZ106-104-201200-
NEW YORK CITY METRO AREA

CITY           SKY/WX    TMP DP  RH WIND       PRES   REMARKS
Central Park   MOSUNNY   79  70  74 CALM      30.00R
Bronx Bot Gard   N/A     75  68  78 N2        29.97F
LaGuardia APRT PTSUNNY   79  73  82 NE3       29.96R
Kennedy INTL   PTSUNNY   78  77  96 S5        29.97R
Breezy Point     N/A     73 N/A N/A W6          N/A
Newark/Liberty PTSUNNY   80  71  74 W3        29.97R
Teterboro      MOSUNNY   78  69  73 N3        29.96R
$$

NYZ177-179-078>081-201200-
LONG ISLAND NEW YORK

CITY           SKY/WX    TMP DP  RH WIND       PRES   REMARKS
Jones Beach      N/A     75 N/A N/A W2          N/A
Matinecock PT    N/A     75 N/A N/A SW1         N/A
Farmingdale    MOSUNNY   77  73  87 CALM      29.97R
MacArthur/ISP  MOSUNNY   78  72  81 CALM      29.97R
Shirley        MOSUNNY   74  73  97 CALM      29.98R
Mt Sinai Harb    N/A    N/A N/A N/A MISG        N/A
Westhampton    SUNNY     72  68  87 CALM      29.99S
East Hampton   FAIR      70  67  91 CALM      29.97R
Montauk          N/A     76  74  93 W3        29.98R
$$

NYZ052-065-067-201200-
HUDSON VALLEY

CITY           SKY/WX    TMP DP  RH WIND       PRES   REMARKS
White Plains   MOSUNNY   74  64  71 NW5       29.99R
Larchmont Harb   N/A     73 N/A N/A CALM        N/A
Croton O-T Hud   N/A     73 N/A N/A CALM        N/A
Newburgh       MOSUNNY   70  68  94 CALM      30.01R
Montgomery     CLOUDY    68  65  90 CALM      30.00R
Poughkeepsie   PTSUNNY   69  64  84 CALM      29.99R
Albany         PTSUNNY   71  66  84 CALM      29.99R
$$

NJZ001-105-106-008-010-013-015-019>022-104-201200-
NEW JERSEY

CITY           SKY/WX    TMP DP  RH WIND       PRES   REMARKS
Newark/Liberty PTSUNNY   80  71  74 W3        29.97R
Teterboro      MOSUNNY   78  69  73 N3        29.96R
Caldwell       MOSUNNY   73  69  87 CALM      29.99R
Somerville     MOSUNNY   72  71  97 MISG      29.98R FOG
Linden         FAIR      77  70  80 NW6       29.98R
Perth Amboy      N/A     75 N/A N/A W7          N/A
Sussex         FOG       68  68 100 CALM      30.01R VSB 1/2
Andover          N/A     69  68  96 CALM      30.01R
Trenton        MOSUNNY   78  73  84 W5        29.98R
Millville      SUNNY     77  77 100 W3        29.99R
Atlantic City  SUNNY     79  75  87 SW6       29.99R
Wrightstown    SUNNY     75  73  93 SW6       29.97R
Toms River     SUNNY     77  72  84 W7        29.99R
Belmar         SUNNY     75  73  93 SW6       29.99R
$$

PAZ047>061-062-071-201200-
EASTERN PENNSYLVANIA

CITY           SKY/WX    TMP DP  RH WIND       PRES   REMARKS
Philadelphia   PTSUNNY   79  75  87 W7        29.99R
Allentown      MOSUNNY   74  70  87 CALM      30.01R
Scranton       SUNNY     68  66  93 CALM      30.05R FOG
$$

CTZ002-004>006-009-010-012-RIZ004-006-007-MAZ004-011-015-201200-
SOUTHERN NEW ENGLAND
 IN CT

CITY           SKY/WX    TMP DP  RH WIND       PRES   REMARKS
Bradley INTL   MOSUNNY   74  66  76 CALM      29.98R
Hartford       SUNNY     73  70  90 S3        29.96S
Danbury        SUNNY     68  65  90 CALM      30.01R
Wtrbury/Oxford PTSUNNY   68  63  83 CALM      30.01R
Bridgeport     MOSUNNY   75  66  73 N3        29.97R
Meriden        SUNNY     68  67  96 CALM      29.97S
New Haven      MOSUNNY   74  68  81 CALM      29.97R
Chester        FAIR      72  66  83 MISG      29.98S
Groton         SUNNY     73  70  90 CALM      29.96R
Wilimantic     SUNNY     70  67  90 CALM      29.98R

 IN RI

CITY           SKY/WX    TMP DP  RH WIND       PRES   REMARKS
Providence     MOSUNNY   74  69  85 CALM      29.96R
Block Island   MOSUNNY   72  70  93 W7        29.98R FOG
Westerly       SUNNY     73  70  90 CALM      29.97R
 IN MA

CITY           SKY/WX    TMP DP  RH WIND       PRES   REMARKS
Boston         MOSUNNY   78  64  61 W8        29.94R
Worcester      SUNNY     72  61  68 W9        30.00R
Westfield      MOSUNNY   72  68  87 CALM      29.98R
Provincetown   SUNNY     72  68  87 W6        29.95R
Nantucket      FOG       71  71 100 W6        29.95S VSB 1/4
$$

ANZ330-335-338-340-345-350-353-355-201200-
COASTAL MARINE OBSERVATIONS


STATION/POSITION TIME  SKY/WX   TEMP    WIND        PRES    VSBY  WAVE
                                AIR SEA DIR/SP/G                  HT/PER
                 (UTC)          (F)     (DEG/KT/KT) (MB)    (MI)  (FT/S)
NY HARB ENTRANCE 0950            76 75  240/  6/  6 1014.2          2/ 5
20 S FIRE ISLAND 1050            76 74  220/  8/ 10 1014.2          3/ 5
GREAT SOUTH BAY  1030            78 81   CALM  /  2   N/A
23 SSW MONTAUK P 0950            75 75              1014.7          3/ 5
15 E BARNEGAT LI 1030               78                N/A           3/15
HUDSON CANYON    0950            79 78  250/ 12/ 14 1014.7          3/ 5
KINGS POINT      1036            74 72     CALM     1014.5
EXECUTION ROCKS  1045            78      20/  2/  2   N/A
CENTRAL LI SOUND 1045            76     340/  2/  4   N/A           0
EASTERN LI SOUND NOT AVBL
ROBBINS REEF     1036                   250/  5/  6 1015.2
$$


>>>>>>>>>>>>>>>>>>>>>>>>>>>> KEY <<<<<<<<<<<<<<<<<<<<<<<<<<<
>                                                          <
>     SKY/WX - Sky Condition/Present Weather               <
>     TMP    - Temperature in Fahrenheit                   <
>     DP     - Dew Point in Fahrenheit                     <
>     RH     - Relative Humidity in Percent                <
>     WIND   - Direction (from) and Speed in MPH           <
>     PRES   - Mean Sea Level Pressure (inches of Hg)      <
>     WCI    - Wind Chill Index                            <
>     VSB    - VISIBILITY IN MILES                         <
>     HX     - HEAT INDEX                                  <
>     TC     - TEMPERATURE IN CELSIUS                      <
>     VRB    - VARIABLE WIND DIRECTION                     <
>                                                          <
>>>>>>>>>>>>>>>>>>>>>>>>>>>> KEY <<<<<<<<<<<<<<<<<<<<<<<<<<<




USA.gov is the U.S. government's official web portal to all federal, state and local government web resources and services.